Torna al catalogo

FENGYUN 1C DEB

AttivoPO
NORAD 30716·DEBRIS·🇨🇳 China

Lanciato May 10, 1999 da Taiyuan Satellite Launch Center

Loading…

Prossimi Passaggi (prossime 24 ore)

TLE

AggiornatoSource: Space-Track

Epoca: Sep 14, 2026, 21:14 UTC

1 30716U 99025ASA 26257.88496168  .00031988  00000-0  28562-2 0  9998
2 30716  98.8554 118.5142 0014032 293.1218 188.2661 14.95788028 19303

Traccia FENGYUN 1C DEB in tempo reale con AllMySat

Download on the App Store